User: anonymous   Login
Location: Skalnate Pleso
(49.1889°N, 20.2450°E)
Time: 07:33:29
(UTC+02:00)
Language:

Iridium 45 - Orbit

View from above orbital plane
View from above orbital plane
View from above satellite
View from above satellite

Ground track
Ground track

The orbit data is extracted from the following two-line orbital elements,

1 25104U 97082A   17268.45876790 -.00000041  00000-0 -21740-4 0  9993
2 25104  86.3936 245.2755 0002127  57.4823 302.6578 14.34216811 34740
Epoch (UTC): 25 September 2017 11:00:37
Eccentricity: 0.0002127
inclination: 86.3936°
perigee height: 776 km
apogee height: 779 km
right ascension of ascending node: 245.2755°
argument of perigee: 57.4823°
revolutions per day: 14.34216811
mean anomaly at epoch: 302.6578°
orbit number at epoch: 3474

The dashed part of the orbit path shows where the satellite is in the earth's shadow,  

DLR